This is the latest recevied weather packets stored in our database for station/object N1YZ. If no packets are shown the sender has not sent any weather packets the latest 10 day(s).
| Time | Temp. | Humidity | Pressure | Rain* | Wind** | Luminosity | Snow |
|---|---|---|---|---|---|---|---|
| 1788220964 | 30.56° C | 67% | 1036.9 hPa | 0 mm | - | 4 W/m² | - |
| 1788220663 | 30.56° C | 67% | 1036.8 hPa | 0 mm | - | 5 W/m² | - |
| 1788220359 | 30.56° C | 67% | 1036.7 hPa | 0 mm | - | 7 W/m² | - |
| 1788220059 | 31.11° C | 66% | 1037.1 hPa | 0 mm | - | 8 W/m² | - |
| 1788219758 | 31.11° C | 66% | 1036.8 hPa | 0 mm | - | 9 W/m² | - |
| 1788219454 | 31.11° C | 66% | 1036.9 hPa | 0 mm | - | 11 W/m² | - |
| 1788219149 | 31.11° C | 65% | 1036.8 hPa | 0 mm | - | 12 W/m² | - |
| 1788218844 | 31.11° C | 65% | 1036.8 hPa | 0 mm | - | 13 W/m² | - |
| 1788218541 | 31.11° C | 65% | 1036.8 hPa | 0 mm | - | 14 W/m² | - |
| 1788218237 | 31.11° C | 64% | 1036.8 hPa | 0 mm | - | 15 W/m² | - |
| 1788217933 | 31.11° C | 64% | 1036.9 hPa | 0 mm | - | 16 W/m² | - |
| 1788217633 | 31.67° C | 64% | 1037.1 hPa | 0 mm | - | 17 W/m² | - |
| 1788217328 | 31.67° C | 64% | 1037.2 hPa | 0 mm | - | 17 W/m² | - |
| 1788217027 | 31.67° C | 63% | 1037.1 hPa | 0 mm | - | 18 W/m² | - |
| 1788216722 | 31.67° C | 62% | 1037 hPa | 0 mm | - | 19 W/m² | - |
| 1788216416 | 31.67° C | 61% | 1036.9 hPa | 0 mm | - | 20 W/m² | - |
| 1788216112 | 31.67° C | 61% | 1037 hPa | 0 mm | - | 20 W/m² | - |
| 1788215807 | 31.67° C | 61% | 1036.9 hPa | 0 mm | - | 21 W/m² | - |
| 1788215504 | 31.67° C | 63% | 1036.7 hPa | 0 mm | - | 22 W/m² | - |
| 1788215199 | 32.22° C | 64% | 1036.7 hPa | 0 mm | - | 23 W/m² | - |
| 1788214895 | 32.22° C | 63% | 1036.8 hPa | 0 mm | - | 26 W/m² | - |
| 1788214590 | 31.67° C | 63% | 1036.9 hPa | 0 mm | - | 27 W/m² | - |
| 1788214285 | 31.67° C | 64% | 1036.8 hPa | 0 mm | - | 31 W/m² | - |
| 1788213980 | 32.22° C | 64% | 1036.8 hPa | 0 mm | - | 23 W/m² | - |
| 1788213675 | 32.22° C | 63% | 1037.1 hPa | 0 mm | - | 26 W/m² | - |
* Rain latest hour (hover to see other rain measurements)
** Current wind speed in m/s (hover to see current wind gust speed)